Location: Hope
(40.9110°N, 74.9680°W)
Time: 13:51:13
(UTC-05:00)

FORTE - Pass Details

Date: 07 December 2021
Orbit: 785 x 822 km, 70.0° (Epoch: 23 January)

Event Time Altitude Azimuth Distance (km) Brightness Sun altitude
Rises 06:22:40 0° 230° (SW) 3,265 10.0 -9.1°
Reaches altitude 10° 06:25:17 10° 240° (WSW) 2,343 9.2 -8.6°
Maximum altitude 06:30:05 33° 304° (NW) 1,311 7.7 -7.8°
Drops below altitude 10° 06:34:57 10° 8° (N) 2,371 9.4 -6.9°
Sets 06:37:37 0° 18° (NNE) 3,311 10.2 -6.5°
